Time,TemperatureF,DewpointF,PressureIn,WindDirection,WindDirectionDegrees,WindSpeedMPH,WindSpeedGustMPH,Humidity,HourlyPrecipIn,Conditions,Clouds,dailyrainin,SoftwareType,DateUTC
2013-09-17 00:02:00,83.0,65.0,29.99,SSW,213,0.0,0.0,55,0.00,,,0.00,weatherlink.com 1.10,2013-09-17 05:02:00,
2013-09-17 00:17:00,82.4,65.0,29.99,SSW,213,0.0,0.0,56,0.00,,,0.00,weatherlink.com 1.10,2013-09-17 05:17:00,
2013-09-17 00:32:00,82.0,65.0,29.99,SSW,213,0.0,1.0,57,0.00,,,0.00,weatherlink.com 1.10,2013-09-17 05:32:00,
2013-09-17 00:47:00,81.8,65.0,29.98,SE,138,3.0,4.0,57,0.00,,,0.00,weatherlink.com 1.10,2013-09-17 05:47:00,
2013-09-17 01:02:00,82.3,65.0,29.98,ESE,111,3.0,4.0,57,0.00,,,0.00,weatherlink.com 1.10,2013-09-17 06:02:00,
2013-09-17 01:17:00,81.9,65.0,29.98,ESE,102,4.0,7.0,57,0.00,,,0.00,weatherlink.com 1.10,2013-09-17 06:17:00,
2013-09-17 01:32:00,81.6,65.0,29.98,ESE,105,3.0,8.0,58,0.00,,,0.00,weatherlink.com 1.10,2013-09-17 06:32:00,
2013-09-17 01:47:00,81.8,65.0,29.98,ESE,105,8.0,9.0,58,0.00,,,0.00,weatherlink.com 1.10,2013-09-17 06:47:00,
2013-09-17 02:03:00,81.7,65.0,29.98,East,97,3.0,11.0,58,0.00,,,0.00,weatherlink.com 1.10,2013-09-17 07:03:00,
2013-09-17 02:18:00,81.4,66.0,29.97,ESE,104,3.0,7.0,59,0.00,,,0.00,weatherlink.com 1.10,2013-09-17 07:18:00,
2013-09-17 02:33:00,81.1,65.0,29.98,ESE,109,7.0,8.0,59,0.00,,,0.00,weatherlink.com 1.10,2013-09-17 07:33:00,
2013-09-17 02:48:00,80.8,65.0,29.97,ESE,106,0.0,7.0,59,0.00,,,0.00,weatherlink.com 1.10,2013-09-17 07:48:00,
2013-09-17 03:03:00,80.7,65.0,29.97,ESE,109,7.0,9.0,59,0.00,,,0.00,weatherlink.com 1.10,2013-09-17 08:03:00,
2013-09-17 03:18:00,80.7,64.0,29.97,ESE,109,3.0,10.0,58,0.00,,,0.00,weatherlink.com 1.10,2013-09-17 08:18:00,
2013-09-17 03:33:00,80.5,64.0,29.97,ESE,108,7.0,13.0,58,0.00,,,0.00,weatherlink.com 1.10,2013-09-17 08:33:00,
2013-09-17 03:48:00,79.8,64.0,29.96,East,98,7.0,10.0,59,0.00,,,0.00,weatherlink.com 1.10,2013-09-17 08:48:00,
2013-09-17 04:03:00,79.5,64.0,29.96,ESE,113,0.0,10.0,60,0.00,,,0.00,weatherlink.com 1.10,2013-09-17 09:03:00,
2013-09-17 04:18:00,79.0,64.0,29.97,ESE,107,0.0,7.0,61,0.00,,,0.00,weatherlink.com 1.10,2013-09-17 09:18:00,
2013-09-17 04:33:00,78.7,64.0,29.97,East,93,0.0,1.0,61,0.00,,,0.00,weatherlink.com 1.10,2013-09-17 09:33:00,
2013-09-17 04:48:00,78.2,64.0,29.97,East,93,0.0,7.0,62,0.00,,,0.00,weatherlink.com 1.10,2013-09-17 09:48:00,
2013-09-17 05:03:00,77.8,64.0,29.97,East,97,0.0,2.0,62,0.00,,,0.00,weatherlink.com 1.10,2013-09-17 10:03:00,
2013-09-17 05:18:00,77.5,63.0,29.96,East,93,3.0,6.0,62,0.00,,,0.00,weatherlink.com 1.10,2013-09-17 10:18:00,
2013-09-17 05:33:00,76.9,63.0,29.96,East,96,3.0,5.0,63,0.00,,,0.00,weatherlink.com 1.10,2013-09-17 10:33:00,
2013-09-17 05:48:00,76.2,63.0,29.96,East,97,5.0,6.0,64,0.00,,,0.00,weatherlink.com 1.10,2013-09-17 10:48:00,
2013-09-17 06:03:00,75.4,63.0,29.96,East,101,0.0,6.0,65,0.00,,,0.00,weatherlink.com 1.10,2013-09-17 11:03:00,
2013-09-17 06:18:00,75.0,63.0,29.97,ESE,102,0.0,1.0,66,0.00,,,0.00,weatherlink.com 1.10,2013-09-17 11:18:00,
2013-09-17 06:33:00,74.6,63.0,29.97,ESE,103,0.0,1.0,67,0.00,,,0.00,weatherlink.com 1.10,2013-09-17 11:33:00,
2013-09-17 06:48:00,74.3,63.0,29.98,ESE,103,0.0,0.0,67,0.00,,,0.00,weatherlink.com 1.10,2013-09-17 11:48:00,
2013-09-17 07:03:00,74.1,63.0,29.98,ESE,102,0.0,0.0,68,0.00,,,0.00,weatherlink.com 1.10,2013-09-17 12:03:00,
2013-09-17 07:18:00,73.2,62.0,29.98,ESE,102,0.0,0.0,68,0.00,,,0.00,weatherlink.com 1.10,2013-09-17 12:18:00,
2013-09-17 07:33:00,73.3,62.0,29.99,ESE,102,0.0,0.0,68,0.00,,,0.00,weatherlink.com 1.10,2013-09-17 12:33:00,
2013-09-17 07:48:00,73.4,62.0,29.99,ESE,102,0.0,0.0,68,0.00,,,0.00,weatherlink.com 1.10,2013-09-17 12:48:00,
2013-09-17 08:03:00,73.1,62.0,30.00,ESE,102,0.0,0.0,69,0.00,,,0.00,weatherlink.com 1.10,2013-09-17 13:03:00,
2013-09-17 08:18:00,74.5,63.0,30.00,East,87,0.0,7.0,67,0.00,,,0.00,weatherlink.com 1.10,2013-09-17 13:18:00,
2013-09-17 08:33:00,76.1,63.0,30.00,ESE,104,5.0,8.0,64,0.00,,,0.00,weatherlink.com 1.10,2013-09-17 13:33:00,
2013-09-17 08:48:00,76.8,63.0,30.00,ESE,109,7.0,10.0,63,0.00,,,0.00,weatherlink.com 1.10,2013-09-17 13:48:00,
2013-09-17 09:03:00,77.5,64.0,30.00,ESE,122,12.0,13.0,63,0.00,,,0.00,weatherlink.com 1.10,2013-09-17 14:03:00,
2013-09-17 09:18:00,78.5,65.0,30.00,SE,132,4.0,12.0,63,0.00,,,0.00,weatherlink.com 1.10,2013-09-17 14:18:00,
2013-09-17 09:33:00,80.2,66.0,30.00,ESE,119,8.0,9.0,62,0.00,,,0.00,weatherlink.com 1.10,2013-09-17 14:33:00,
2013-09-17 09:48:00,80.9,67.0,30.01,ESE,119,9.0,13.0,62,0.00,,,0.00,weatherlink.com 1.10,2013-09-17 14:48:00,
2013-09-17 10:03:00,81.6,67.0,30.01,SE,131,8.0,12.0,61,0.00,,,0.00,weatherlink.com 1.10,2013-09-17 15:03:00,
2013-09-17 10:18:00,82.7,67.0,30.00,SSE,151,11.0,13.0,60,0.00,,,0.00,weatherlink.com 1.10,2013-09-17 15:18:00,
2013-09-17 10:33:00,84.4,67.0,30.01,SSE,163,7.0,12.0,57,0.00,,,0.00,weatherlink.com 1.10,2013-09-17 15:33:00,
2013-09-17 10:48:00,84.5,68.0,30.01,SSE,160,5.0,10.0,57,0.00,,,0.00,weatherlink.com 1.10,2013-09-17 15:48:00,
2013-09-17 11:03:00,85.7,68.0,30.00,ESE,115,7.0,12.0,56,0.00,,,0.00,weatherlink.com 1.10,2013-09-17 16:03:00,
2013-09-17 11:18:00,87.0,68.0,30.00,ESE,121,5.0,11.0,53,0.00,,,0.00,weatherlink.com 1.10,2013-09-17 16:18:00,
2013-09-17 11:34:00,87.6,66.0,30.00,SW,223,0.0,10.0,49,0.00,,,0.00,weatherlink.com 1.10,2013-09-17 16:34:00,
2013-09-17 11:49:00,87.9,66.0,29.99,SSW,204,5.0,9.0,48,0.00,,,0.00,weatherlink.com 1.10,2013-09-17 16:49:00,
2013-09-17 12:04:00,88.5,66.0,29.99,SE,142,4.0,9.0,48,0.00,,,0.00,weatherlink.com 1.10,2013-09-17 17:04:00,
2013-09-17 12:19:00,89.3,65.0,29.98,WSW,241,5.0,11.0,44,0.00,,,0.00,weatherlink.com 1.10,2013-09-17 17:19:00,
2013-09-17 12:34:00,90.6,65.0,29.98,SW,214,8.0,13.0,43,0.00,,,0.00,weatherlink.com 1.10,2013-09-17 17:34:00,
2013-09-17 12:49:00,90.4,64.0,29.97,SW,226,9.0,18.0,42,0.00,,,0.00,weatherlink.com 1.10,2013-09-17 17:49:00,
2013-09-17 13:04:00,91.8,64.0,29.96,South,179,7.0,13.0,40,0.00,,,0.00,weatherlink.com 1.10,2013-09-17 18:04:00,
2013-09-17 13:19:00,92.2,65.0,29.96,SSW,210,3.0,12.0,41,0.00,,,0.00,weatherlink.com 1.10,2013-09-17 18:19:00,
2013-09-17 13:34:00,92.0,64.0,29.95,ESE,116,8.0,13.0,39,0.00,,,0.00,weatherlink.com 1.10,2013-09-17 18:34:00,
2013-09-17 13:49:00,91.6,64.0,29.95,SSW,210,7.0,16.0,40,0.00,,,0.00,weatherlink.com 1.10,2013-09-17 18:49:00,
2013-09-17 14:04:00,91.6,64.0,29.94,SSW,200,5.0,13.0,40,0.00,,,0.00,weatherlink.com 1.10,2013-09-17 19:04:00,
2013-09-17 14:19:00,92.6,64.0,29.93,South,188,1.0,12.0,39,0.00,,,0.00,weatherlink.com 1.10,2013-09-17 19:19:00,
2013-09-17 14:34:00,92.7,64.0,29.92,SSW,213,5.0,15.0,39,0.00,,,0.00,weatherlink.com 1.10,2013-09-17 19:34:00,
2013-09-17 14:49:00,93.8,65.0,29.91,SSW,193,7.0,21.0,38,0.00,,,0.00,weatherlink.com 1.10,2013-09-17 19:49:00,
2013-09-17 15:04:00,92.8,64.0,29.90,South,171,4.0,20.0,39,0.00,,,0.00,weatherlink.com 1.10,2013-09-17 20:04:00,
2013-09-17 15:19:00,92.3,65.0,29.90,WSW,238,0.0,11.0,40,0.00,,,0.00,weatherlink.com 1.10,2013-09-17 20:19:00,
2013-09-17 15:34:00,92.1,65.0,29.89,SSE,163,4.0,14.0,41,0.00,,,0.00,weatherlink.com 1.10,2013-09-17 20:34:00,
2013-09-17 15:49:00,91.9,66.0,29.89,SSW,211,2.0,10.0,42,0.00,,,0.00,weatherlink.com 1.10,2013-09-17 20:49:00,
2013-09-17 16:04:00,90.8,66.0,29.89,SSW,202,4.0,17.0,44,0.00,,,0.00,weatherlink.com 1.10,2013-09-17 21:04:00,
2013-09-17 16:19:00,90.8,66.0,29.88,SSE,158,5.0,16.0,44,0.00,,,0.00,weatherlink.com 1.10,2013-09-17 21:19:00,
2013-09-17 16:34:00,90.8,67.0,29.89,SSE,148,5.0,17.0,45,0.00,,,0.00,weatherlink.com 1.10,2013-09-17 21:34:00,
2013-09-17 16:49:00,90.6,66.0,29.89,SSW,198,9.0,13.0,45,0.00,,,0.00,weatherlink.com 1.10,2013-09-17 21:49:00,
2013-09-17 17:04:00,88.5,66.0,29.89,SSW,213,11.0,20.0,47,0.00,,,0.00,weatherlink.com 1.10,2013-09-17 22:04:00,
2013-09-17 17:19:00,89.3,65.0,29.89,SSE,160,0.0,7.0,44,0.00,,,0.00,weatherlink.com 1.10,2013-09-17 22:19:00,
2013-09-17 17:34:00,86.9,68.0,29.89,NNE,19,5.0,9.0,54,0.00,,,0.00,weatherlink.com 1.10,2013-09-17 22:34:00,
2013-09-17 17:49:00,86.1,68.0,29.90,NNE,29,4.0,9.0,55,0.00,,,0.00,weatherlink.com 1.10,2013-09-17 22:49:00,
2013-09-17 18:04:00,85.5,68.0,29.90,North,350,3.0,8.0,57,0.00,,,0.00,weatherlink.com 1.10,2013-09-17 23:04:00,
2013-09-17 18:19:00,84.9,68.0,29.90,NNE,22,5.0,7.0,57,0.00,,,0.00,weatherlink.com 1.10,2013-09-17 23:19:00,
2013-09-17 18:34:00,84.9,68.0,29.90,North,360,0.0,6.0,58,0.00,,,0.00,weatherlink.com 1.10,2013-09-17 23:34:00,
2013-09-17 18:49:00,84.0,69.0,29.90,NNE,28,5.0,7.0,61,0.00,,,0.00,weatherlink.com 1.10,2013-09-17 23:49:00,
2013-09-17 19:04:00,82.7,69.0,29.90,NE,52,0.0,7.0,64,0.00,,,0.00,weatherlink.com 1.10,2013-09-18 00:04:00,
2013-09-17 19:19:00,82.1,70.0,29.90,NE,40,0.0,6.0,66,0.00,,,0.00,weatherlink.com 1.10,2013-09-18 00:19:00,
2013-09-17 19:34:00,81.5,70.0,29.89,NE,40,0.0,0.0,67,0.00,,,0.00,weatherlink.com 1.10,2013-09-18 00:34:00,
2013-09-17 19:49:00,81.2,69.0,29.89,NE,40,0.0,0.0,67,0.00,,,0.00,weatherlink.com 1.10,2013-09-18 00:49:00,
2013-09-17 20:04:00,80.4,70.0,29.89,NE,40,0.0,0.0,70,0.00,,,0.00,weatherlink.com 1.10,2013-09-18 01:04:00,
2013-09-17 20:19:00,80.0,70.0,29.89,NE,40,0.0,0.0,72,0.00,,,0.00,weatherlink.com 1.10,2013-09-18 01:19:00,
2013-09-17 20:34:00,79.5,70.0,29.89,NE,40,0.0,0.0,73,0.00,,,0.00,weatherlink.com 1.10,2013-09-18 01:34:00,
2013-09-17 20:49:00,78.9,70.0,29.90,NE,40,0.0,0.0,74,0.00,,,0.00,weatherlink.com 1.10,2013-09-18 01:49:00,
2013-09-17 21:04:00,78.8,70.0,29.90,NE,40,0.0,0.0,74,0.00,,,0.00,weatherlink.com 1.10,2013-09-18 02:04:00,
2013-09-17 21:19:00,79.1,70.0,29.91,NE,40,0.0,1.0,73,0.00,,,0.00,weatherlink.com 1.10,2013-09-18 02:19:00,
2013-09-17 21:34:00,79.1,70.0,29.91,ENE,67,0.0,0.0,73,0.00,,,0.00,weatherlink.com 1.10,2013-09-18 02:34:00,
2013-09-17 21:49:00,79.1,70.0,29.92,ENE,67,0.0,0.0,73,0.00,,,0.00,weatherlink.com 1.10,2013-09-18 02:49:00,
2013-09-17 22:04:00,79.3,70.0,29.92,ENE,67,0.0,0.0,72,0.00,,,0.00,weatherlink.com 1.10,2013-09-18 03:04:00,
2013-09-17 22:19:00,78.7,69.0,29.92,ENE,67,0.0,0.0,73,0.00,,,0.00,weatherlink.com 1.10,2013-09-18 03:19:00,
2013-09-17 22:34:00,78.8,69.0,29.92,ENE,68,0.0,0.0,73,0.00,,,0.00,weatherlink.com 1.10,2013-09-18 03:34:00,
2013-09-17 22:49:00,79.0,70.0,29.91,East,88,5.0,6.0,73,0.00,,,0.00,weatherlink.com 1.10,2013-09-18 03:49:00,
2013-09-17 23:04:00,78.7,69.0,29.92,East,92,3.0,6.0,73,0.00,,,0.00,weatherlink.com 1.10,2013-09-18 04:04:00,
2013-09-17 23:19:00,78.2,69.0,29.92,East,92,5.0,6.0,74,0.00,,,0.00,weatherlink.com 1.10,2013-09-18 04:19:00,
2013-09-17 23:34:00,78.2,69.0,29.92,East,92,3.0,5.0,74,0.00,,,0.00,weatherlink.com 1.10,2013-09-18 04:34:00,
2013-09-17 23:49:00,78.3,69.0,29.91,ESE,116,3.0,5.0,74,0.00,,,0.00,weatherlink.com 1.10,2013-09-18 04:49:00,